Retour au catalogue

FENGYUN 1C DEB

ActifSSO
NORAD 46444·DEBRIS·🇨🇳 China

Lancé May 10, 1999 depuis Taiyuan Satellite Launch Center

Loading…

Prochains Passages (prochaines 24 heures)

TLE

VieillissantSource: Space-Track

Époque: Sep 8, 2026, 06:03 UTC

1 46444U 99025EYZ 26251.25253536  .00000848  00000-0  34666-3 0  9992
2 46444  98.5209 251.4160 0084441  81.0757 343.8753 14.27794415664277

Suivez FENGYUN 1C DEB en temps réel avec AllMySat

Download on the App Store